STARLINK-34610 (65034 NORAD) Tracking and Keplerian Element Data

This shows tracking and keplerian element data for the satellite.

Feedback or suggestion? Click here.




ElementValue
Catalog65034
NameSTARLINK-34610
Epoch Orbit2204
Epoch Day354.10373624
Epoch Year2025
RAAN303.9582
Inclination53.1602
Eccentricity0.0001006
Argument of Perigee99.0774
Mean Anonmoly261.0341
Mean Motion15.30200534
Decay Rate0.00022767
L11 65034U 25161V 25354.10373624 .00022767 00000+0 77845-3 0 9995
L22 65034 53.1602 303.9582 0001006 99.0774 261.0341 15.30200534 22048



Live tracking and technical data element details for STARLINK-34610 (NORAD 65034). STARLINK-34610 can be tracked NOW for your location showing map with azimuth and elevation plus other details from your city location.







IsCatalogInMostPopularTable: catalog: 65034, numindb: 9
Update: records affected: 1



GetName: 65034 STARLINK-34610

Hit Count: updated at: Tue, 21 Apr 2026 19:30:28 GMT